カタログに戻る

THOR ABLESTAR DEB

運用中LEO
NORAD 655·DEBRIS·🇺🇸 United States

打ち上げ Jun 29, 1961 から Cape Canaveral Space Force Station

Loading…

次のパス (今後24時間)

TLE

最新Source: Space-Track

元期: Sep 14, 2026, 11:32 UTC

1 00655U 61015HG  26257.48065807 -.00000004  00000-0  11670-3 0  9992
2 00655  67.2558  54.5770 0369171 259.4403 129.1023 13.09591468 98622

AllMySatでTHOR ABLESTAR DEBをリアルタイム追跡

Download on the App Store